Location: Ariel
(45.9570°N, 122.5700°W)
Time: 11:44:21
(UTC-07:00)

A-11 Canister half - Visible Passes

Search period start: 25 August 2019 00:00
Search period end: 04 September 2019 00:00
Orbit: 1514 x 1686 km, 47.2° (Epoch: 24 August)

Date Brightness Start Highest point End Pass type
(mag) Time Alt. Az. Time Alt. Az. Time Alt. Az.
25 Aug 9.2 00:23:04 10° WNW 00:32:10 54° SW 00:32:10 54° SW visible
25 Aug 10.8 02:29:39 10° W 02:30:19 11° W 02:30:19 11° W visible
25 Aug 9.0 21:55:08 10° W 22:04:47 87° N 22:11:48 23° E visible
26 Aug 9.1 00:00:08 10° WNW 00:09:34 57° SSW 00:09:57 57° SSW visible
26 Aug 10.7 02:06:29 10° W 02:08:06 14° W 02:08:06 14° W visible
26 Aug 9.1 21:32:13 10° W 21:41:50 86° N 21:49:37 19° E visible
26 Aug 9.1 23:37:12 10° WNW 23:46:40 59° SSW 23:47:47 56° S visible
27 Aug 10.6 01:43:20 10° W 01:45:56 16° W 01:45:56 16° W visible
27 Aug 9.1 21:09:18 10° W 21:18:53 85° N 21:27:31 15° E visible
27 Aug 9.1 23:14:17 10° WNW 23:23:46 62° SSW 23:25:40 54° S visible
28 Aug 10.5 01:20:14 10° W 01:23:50 19° WSW 01:23:50 19° WSW visible
28 Aug 9.1 20:46:22 10° W 20:55:56 85° N 21:05:26 12° E visible
28 Aug 9.1 22:51:21 10° WNW 23:00:51 64° SSW 23:03:35 49° SSE visible
29 Aug 10.4 00:57:09 10° W 01:01:46 22° WSW 01:01:46 22° WSW visible
29 Aug 9.2 20:23:27 10° W 20:32:59 84° N 20:42:52 10° E visible
29 Aug 9.1 22:28:27 10° WNW 22:37:57 66° SSW 22:41:34 43° SE visible
30 Aug 10.2 00:34:06 10° W 00:39:44 25° WSW 00:39:44 25° WSW visible
30 Aug 9.1 22:05:32 10° WNW 22:15:02 69° SSW 22:19:35 36° SE visible
31 Aug 10.1 00:11:04 10° WNW 00:17:45 28° WSW 00:17:45 28° WSW visible
31 Aug 9.1 21:42:37 10° WNW 21:52:07 71° SSW 21:57:39 30° SE visible
31 Aug 10.0 23:48:03 10° WNW 23:55:49 30° SW 23:55:49 30° SW visible
01 Sep 9.1 21:19:43 10° WNW 21:29:12 73° SSW 21:35:44 24° SE visible
01 Sep 9.9 23:25:03 10° WNW 23:33:11 32° SW 23:33:55 31° SW visible
02 Sep 9.1 20:56:48 10° WNW 21:06:16 75° SSW 21:13:53 19° ESE visible
02 Sep 9.8 23:02:04 10° WNW 23:10:20 34° SW 23:12:04 32° SSW visible
03 Sep 9.1 20:33:53 10° WNW 20:43:21 77° SSW 20:52:05 14° ESE visible
03 Sep 9.8 22:39:05 10° WNW 22:47:28 35° SW 22:50:16 30° SSW visible
